M I D A S
Marine Information and Data Acquisition System
Tripno 2155 of the Zeeleeuw from 2011-08-01 08:31:43 to 2011-08-01 09:38:39
Back to CruiseResearch ActivitiesStationsMapUnderway DataData graphs

EquipmentUnitsComments
TimeDGPSUTC
LatitudeDGPSDM.mWGS84
LongitudeDGPSDM.mWGS84
SpeedMeteo Stationm/sRelative wind speed
DirectionMeteo StationdegRelative wind direction
TemperatureMeteo Stationdeg CelciusAir temperature
PressureMeteo StationPaAtmospheric pressure
HumidityMeteo Station%Relative humidity
Missing or incorrect values are displayed as -999
Metereological data collected by the RV Zeeleeuw from 2011-08-01 06:11:46 to 2011-08-01 10:16:22
Time Latitude Longitude Speed Direction Temperature Pressure Humidity
2011-08-01 06:12 51°13.636 2°56.019 -999 282 13.6 101540 45
2011-08-01 06:13 51°13.637 2°56.019 -999 282 13.6 101540 47
2011-08-01 06:14 51°13.637 2°56.02 -999 282 13.6 101540 47
2011-08-01 06:15 51°13.637 2°56.018 -999 282 13.7 101550 47
2011-08-01 06:16 51°13.636 2°56.019 -999 282 13.7 101540 47
2011-08-01 06:17 51°13.637 2°56.019 -999 282 13.7 101550 47
2011-08-01 06:18 51°13.636 2°56.019 -999 282 13.7 101550 47
2011-08-01 06:19 51°13.636 2°56.018 -999 282 13.7 101550 47
2011-08-01 06:20 51°13.636 2°56.018 -999 282 13.8 101550 45
2011-08-01 06:21 51°13.635 2°56.019 -999 349 13.8 101550 47
2011-08-01 06:22 51°13.636 2°56.019 -999 282 13.8 101550 47
2011-08-01 06:23 51°13.636 2°56.019 -999 282 13.8 101550 47
2011-08-01 06:24 51°13.636 2°56.019 -999 282 13.8 101550 47
2011-08-01 06:25 51°13.636 2°56.019 -999 351 13.8 101550 47
2011-08-01 06:26 51°13.636 2°56.018 -999 350 13.9 101550 47
2011-08-01 06:27 51°13.636 2°56.019 -999 282 13.9 101550 47
2011-08-01 06:28 51°13.637 2°56.019 -999 356 14 101550 46
2011-08-01 06:29 51°13.637 2°56.019 -999 282 14 101550 47
2011-08-01 06:30 51°13.637 2°56.018 -999 282 14.1 101550 47
2011-08-01 06:31 51°13.637 2°56.018 -999 282 14.1 101550 47
2011-08-01 06:32 51°13.637 2°56.017 -999 282 14.2 101550 47
2011-08-01 06:33 51°13.636 2°56.018 -999 282 14.2 101550 47
2011-08-01 06:34 51°13.637 2°56.018 -999 282 14.2 101550 47
2011-08-01 06:35 51°13.637 2°56.017 -999 281 14.2 101550 47
2011-08-01 06:36 51°13.637 2°56.017 -999 282 14.3 101550 45
2011-08-01 06:37 51°13.637 2°56.017 -999 281 14.2 101550 47
2011-08-01 06:38 51°13.637 2°56.017 -999 282 14.3 101550 47
2011-08-01 06:39 51°13.637 2°56.017 -999 282 14.4 101550 47
2011-08-01 06:40 51°13.638 2°56.017 -999 282 14.4 101550 47
2011-08-01 06:41 51°13.638 2°56.018 -999 282 14.4 101550 47
2011-08-01 06:42 51°13.637 2°56.017 -999 282 14.5 101550 46
2011-08-01 06:43 51°13.637 2°56.017 -999 282 14.5 101550 47
2011-08-01 06:44 51°13.636 2°56.017 -999 282 14.5 101550 45
2011-08-01 06:45 51°13.637 2°56.017 -999 281 14.5 101550 47
2011-08-01 06:46 51°13.637 2°56.017 -999 282 14.6 101550 47
2011-08-01 06:47 51°13.637 2°56.018 -999 282 14.6 101550 47
2011-08-01 06:48 51°13.637 2°56.018 -999 281 14.7 101550 47
2011-08-01 06:49 51°13.637 2°56.019 -999 281 14.6 101550 47
2011-08-01 06:50 51°13.637 2°56.019 -999 281 14.6 101550 46
2011-08-01 06:51 51°13.637 2°56.018 -999 337 14.6 101550 47
2011-08-01 06:52 51°13.637 2°56.018 -999 282 14.7 101550 47
2011-08-01 06:53 51°13.637 2°56.018 -999 281 14.7 101550 47
2011-08-01 06:54 51°13.637 2°56.018 -999 282 14.7 101550 46
2011-08-01 06:55 51°13.636 2°56.017 -999 282 14.8 101550 46
2011-08-01 06:56 51°13.636 2°56.017 -999 282 14.7 101550 46
2011-08-01 06:57 51°13.637 2°56.016 -999 282 14.7 101550 46
2011-08-01 06:58 51°13.637 2°56.016 -999 282 14.7 101550 47
2011-08-01 06:59 51°13.637 2°56.017 -999 282 14.9 101550 47
2011-08-01 07:00 51°13.637 2°56.017 -999 282 14.9 101550 46
2011-08-01 07:01 51°13.637 2°56.017 -999 281 14.9 101550 46
2011-08-01 07:02 51°13.637 2°56.018 -999 281 15 101550 46
2011-08-01 07:03 51°13.637 2°56.018 -999 281 15 101550 46
2011-08-01 07:04 51°13.638 2°56.017 -999 282 15 101550 46
2011-08-01 07:05 51°13.638 2°56.017 -999 281 15 101550 46
2011-08-01 07:06 51°13.638 2°56.017 -999 281 15.1 101550 47
2011-08-01 07:07 51°13.637 2°56.017 -999 282 15.1 101550 46
2011-08-01 07:08 51°13.637 2°56.017 -999 282 15.1 101550 46
2011-08-01 07:09 51°13.637 2°56.018 -999 282 15.1 101550 47
2011-08-01 07:10 51°13.637 2°56.018 -999 281 15.2 101560 46
2011-08-01 07:11 51°13.637 2°56.018 -999 281 15.3 101550 47
2011-08-01 07:12 51°13.638 2°56.018 -999 282 15.3 101550 47
2011-08-01 07:13 51°13.638 2°56.019 -999 281 15.4 101550 46
2011-08-01 07:14 51°13.638 2°56.019 -999 281 15.3 101550 45
2011-08-01 07:15 51°13.638 2°56.019 -999 282 15.4 101550 45
2011-08-01 07:16 51°13.637 2°56.019 -999 281 15.4 101550 45
2011-08-01 07:17 51°13.637 2°56.019 -999 281 15.5 101550 45
2011-08-01 07:18 51°13.637 2°56.019 -999 281 15.6 101550 46
2011-08-01 07:19 51°13.637 2°56.019 -999 281 15.7 101550 45
2011-08-01 07:20 51°13.637 2°56.018 -999 282 15.8 101550 45
2011-08-01 07:21 51°13.637 2°56.017 -999 281 15.8 101550 45
2011-08-01 07:22 51°13.637 2°56.017 -999 282 15.8 101550 45
2011-08-01 07:23 51°13.638 2°56.017 -999 281 15.9 101550 45
2011-08-01 07:24 51°13.637 2°56.018 -999 282 15.9 101550 45
2011-08-01 07:25 51°13.637 2°56.018 -999 281 16 101550 45
2011-08-01 07:26 51°13.637 2°56.019 -999 281 16.1 101540 45
2011-08-01 07:27 51°13.638 2°56.02 -999 281 16.1 101550 45
2011-08-01 07:28 51°13.636 2°56.018 -999 281 16.1 101550 45
2011-08-01 07:29 51°13.636 2°56.017 -999 282 16.2 101540 45
2011-08-01 07:30 51°13.636 2°56.018 -999 281 16.2 101550 45
2011-08-01 07:31 51°13.635 2°56.018 -999 282 16.3 101550 44
2011-08-01 07:32 51°13.635 2°56.018 -999 281 16.3 101550 44
2011-08-01 07:33 51°13.636 2°56.019 -999 281 16.3 101550 44
2011-08-01 07:34 51°13.636 2°56.018 -999 281 16.3 101550 44
2011-08-01 07:35 51°13.637 2°56.018 -999 281 16.3 101550 44
2011-08-01 07:36 51°13.637 2°56.017 -999 281 16.3 101550 44
2011-08-01 07:37 51°13.638 2°56.019 -999 281 16.3 101550 44
2011-08-01 07:38 51°13.638 2°56.019 -999 281 16.4 101540 44
2011-08-01 07:39 51°13.638 2°56.019 -999 281 16.4 101540 44
2011-08-01 07:40 51°13.638 2°56.018 -999 281 16.4 101550 44
2011-08-01 07:41 51°13.638 2°56.017 -999 281 16.4 101550 44
2011-08-01 07:42 51°13.638 2°56.017 -999 281 16.5 101550 44
2011-08-01 07:43 51°13.638 2°56.017 -999 281 16.5 101540 44
2011-08-01 07:44 51°13.638 2°56.017 -999 281 16.4 101550 44
2011-08-01 07:45 51°13.638 2°56.017 -999 281 16.5 101550 44
2011-08-01 07:46 51°13.638 2°56.018 -999 282 16.6 101540 44
2011-08-01 07:47 51°13.636 2°56.018 -999 281 16.7 101550 44
2011-08-01 07:48 51°13.637 2°56.018 -999 343 16.7 101550 44
2011-08-01 07:49 51°13.637 2°56.018 -999 281 16.8 101550 44
2011-08-01 07:50 51°13.635 2°56.018 -999 342 16.9 101550 44
2011-08-01 07:51 51°13.636 2°56.018 -999 281 16.9 101550 44
2011-08-01 07:52 51°13.636 2°56.018 -999 281 17 101550 43
2011-08-01 07:53 51°13.637 2°56.019 -999 282 17 101550 43
2011-08-01 07:54 51°13.637 2°56.019 -999 345 17.1 101550 43
2011-08-01 07:55 51°13.637 2°56.019 -999 281 17.1 101550 42
2011-08-01 07:56 51°13.637 2°56.019 -999 281 17.1 101550 42
2011-08-01 07:57 51°13.636 2°56.018 -999 340 17.1 101550 42
2011-08-01 07:58 51°13.636 2°56.018 -999 281 17.2 101550 42
2011-08-01 07:59 51°13.635 2°56.018 -999 282 17.2 101550 42
2011-08-01 08:00 51°13.636 2°56.018 -999 281 17.2 101550 42
2011-08-01 08:01 51°13.636 2°56.018 -999 335 17.2 101550 42
2011-08-01 08:02 51°13.636 2°56.018 -999 281 17.3 101550 42
2011-08-01 08:03 51°13.636 2°56.018 -999 282 17.3 101550 42
2011-08-01 08:04 51°13.637 2°56.017 -999 282 17.4 101550 42
2011-08-01 08:05 51°13.636 2°56.017 -999 281 17.5 101550 42
2011-08-01 08:06 51°13.637 2°56.017 -999 338 17.5 101540 42
2011-08-01 08:07 51°13.635 2°56.018 -999 282 17.5 101550 42
2011-08-01 08:08 51°13.635 2°56.018 -999 282 17.6 101540 42
2011-08-01 08:09 51°13.636 2°56.018 -999 281 17.6 101540 42
2011-08-01 08:10 51°13.637 2°56.017 -999 327 17.6 101540 42
2011-08-01 08:11 51°13.637 2°56.017 -999 281 17.7 101540 42
2011-08-01 08:12 51°13.637 2°56.018 -999 282 17.8 101540 42
2011-08-01 08:13 51°13.637 2°56.018 -999 281 17.8 101540 42
2011-08-01 08:14 51°13.635 2°56.019 -999 281 17.9 101540 42
2011-08-01 08:15 51°13.635 2°56.019 -999 322 18 101540 42
2011-08-01 08:16 51°13.635 2°56.019 -999 281 18 101540 41
2011-08-01 08:17 51°13.635 2°56.019 -999 281 18 101540 41
2011-08-01 08:18 51°13.636 2°56.019 -999 281 18.1 101540 42
2011-08-01 08:19 51°13.637 2°56.017 -999 281 18.1 101540 41
2011-08-01 08:20 51°13.636 2°56.016 -999 281 18.1 101540 41
2011-08-01 08:21 51°13.634 2°56.015 -999 318 18.1 101540 42
2011-08-01 08:22 51°13.601 2°56.057 -999 326 18.2 101540 41
2011-08-01 08:23 51°13.551 2°56.138 -999 281 18.3 101540 41
2011-08-01 08:24 51°13.524 2°56.227 -999 281 18.2 101540 41
2011-08-01 08:25 51°13.529 2°56.275 2 13 18.2 101540 41
2011-08-01 08:26 51°13.537 2°56.288 1.2 78 18.1 101540 41
2011-08-01 08:27 51°13.53 2°56.279 0.8 80 18.2 101540 41
2011-08-01 08:28 51°13.536 2°56.28 1.1 29 18.2 101540 41
2011-08-01 08:29 51°13.539 2°56.257 -999 79 18.3 101540 42
2011-08-01 08:30 51°13.553 2°56.152 -999 25 18.5 101540 42
2011-08-01 08:31 51°13.598 2°56.026 -999 281 18.7 101550 42
2011-08-01 08:32 51°13.664 2°55.883 -999 25 18.9 101540 42
2011-08-01 08:33 51°13.742 2°55.729 -999 281 19 101540 42
2011-08-01 08:34 51°13.851 2°55.613 -999 282 19 101540 40
2011-08-01 08:35 51°13.981 2°55.527 -999 356 18.9 101540 40
2011-08-01 08:36 51°14.112 2°55.437 -999 1 18.7 101540 41
2011-08-01 08:37 51°14.243 2°55.333 -999 282 18.4 101540 41
2011-08-01 08:38 51°14.389 2°55.196 3.2 351 18.3 101540 42
2011-08-01 08:39 51°14.54 2°55.024 2.9 336 18.2 101530 41
2011-08-01 08:40 51°14.695 2°54.808 2.9 284 18.2 101540 41
2011-08-01 08:41 51°14.85 2°54.577 3.7 338 18.2 101540 42
2011-08-01 08:42 51°15.032 2°54.442 5 346 18.2 101530 41
2011-08-01 08:43 51°15.221 2°54.405 3.7 278 18.1 101540 41
2011-08-01 08:44 51°15.407 2°54.328 5 284 18 101540 42
2011-08-01 08:45 51°15.595 2°54.293 4.3 345 18 101530 43
2011-08-01 08:46 51°15.786 2°54.251 5.3 348 18 101530 42
2011-08-01 08:47 51°15.975 2°54.204 6.8 277 17.9 101540 42
2011-08-01 08:48 51°16.132 2°54.223 3.6 358 17.9 101530 43
2011-08-01 08:49 51°16.196 2°54.231 2.3 3 17.8 101540 43
2011-08-01 08:50 51°16.212 2°54.229 2.4 360 17.8 101540 44
2011-08-01 08:51 51°16.215 2°54.224 2.1 6 17.8 101540 44
2011-08-01 08:52 51°16.219 2°54.212 1.5 15 17.8 101540 43
2011-08-01 08:53 51°16.225 2°54.192 1.1 20 17.9 101540 43
2011-08-01 08:54 51°16.231 2°54.168 1.5 22 18 101540 43
2011-08-01 08:55 51°16.237 2°54.145 2.2 16 18.1 101540 43
2011-08-01 08:56 51°16.24 2°54.129 2.6 8 18.2 101540 43
2011-08-01 08:57 51°16.24 2°54.119 2.1 359 18.3 101540 43
2011-08-01 08:58 51°16.246 2°54.138 4 285 18.3 101540 43
2011-08-01 08:59 51°16.255 2°54.251 4.8 277 18.2 101540 43
2011-08-01 09:00 51°16.276 2°54.326 2.9 351 18.2 101530 42
2011-08-01 09:01 51°16.301 2°54.35 2.7 356 18.1 101530 42
2011-08-01 09:02 51°16.314 2°54.363 2.3 279 18.1 101530 43
2011-08-01 09:03 51°16.319 2°54.373 1.9 348 18.1 101530 43
2011-08-01 09:04 51°16.322 2°54.378 1.6 356 18 101530 42
2011-08-01 09:05 51°16.324 2°54.375 1.2 2 18 101540 43
2011-08-01 09:06 51°16.326 2°54.365 -999 355 18.1 101540 43
2011-08-01 09:07 51°16.328 2°54.353 -999 359 18.2 101530 44
2011-08-01 09:08 51°16.352 2°54.328 1.5 15 18.2 101530 43
2011-08-01 09:09 51°16.421 2°54.216 -999 281 18.1 101540 43
2011-08-01 09:10 51°16.529 2°54.004 4 279 18.2 101530 43
2011-08-01 09:11 51°16.632 2°53.715 4.7 282 18.2 101530 44
2011-08-01 09:12 51°16.744 2°53.422 3.8 280 18.3 101530 43
2011-08-01 09:13 51°16.859 2°53.138 4.3 279 18.3 101540 43
2011-08-01 09:14 51°16.969 2°52.859 5.4 283 18.4 101530 43
2011-08-01 09:15 51°17.107 2°52.61 4.6 283 18.3 101530 43
2011-08-01 09:16 51°17.241 2°52.355 3.7 278 18.2 101530 43
2011-08-01 09:17 51°17.379 2°52.112 4.8 284 18.2 101530 43
2011-08-01 09:18 51°17.535 2°51.906 4.4 281 18.1 101530 43
2011-08-01 09:19 51°17.678 2°51.675 4.6 284 18 101530 44
2011-08-01 09:20 51°17.836 2°51.477 5.4 347 17.8 101530 43
2011-08-01 09:21 51°17.997 2°51.277 4.3 347 17.7 101520 44
2011-08-01 09:22 51°18.16 2°51.08 6 347 17.6 101520 44
2011-08-01 09:23 51°18.324 2°50.917 5 352 17.6 101520 44
2011-08-01 09:24 51°18.416 2°50.91 4.7 354 17.5 101520 43
2011-08-01 09:25 51°18.441 2°50.926 3.4 351 17.5 101520 43
2011-08-01 09:26 51°18.443 2°50.928 3.3 352 17.5 101530 45
2011-08-01 09:27 51°18.444 2°50.923 2.6 360 17.6 101530 45
2011-08-01 09:28 51°18.446 2°50.911 1.8 2 17.6 101530 45
2011-08-01 09:29 51°18.448 2°50.893 2.5 9 17.7 101530 44
2011-08-01 09:30 51°18.451 2°50.869 0.2 12 17.6 101530 44
2011-08-01 09:31 51°18.455 2°50.839 -999 18 17.7 101530 44
2011-08-01 09:32 51°18.458 2°50.805 -999 20 17.7 101530 44
2011-08-01 09:33 51°18.461 2°50.765 -999 22 17.8 101530 44
2011-08-01 09:34 51°18.474 2°50.738 3.1 358 17.9 101530 44
2011-08-01 09:35 51°18.481 2°50.736 3.3 277 17.8 101530 45
2011-08-01 09:36 51°18.482 2°50.732 2.9 351 17.7 101530 44
2011-08-01 09:37 51°18.483 2°50.733 3.2 348 17.7 101530 44
2011-08-01 09:38 51°18.495 2°50.754 4.4 279 17.8 101530 44
2011-08-01 09:39 51°18.519 2°50.9 6.1 279 17.8 101530 45
2011-08-01 09:40 51°18.425 2°51.077 6.4 282 17.9 101520 44
2011-08-01 09:41 51°18.256 2°51.254 7 279 18.1 101520 45
2011-08-01 09:42 51°18.066 2°51.407 8.3 278 18.2 101520 44
2011-08-01 09:43 51°17.888 2°51.584 8.8 277 18.3 101520 44
2011-08-01 09:44 51°17.7 2°51.739 7.5 284 18.4 101520 44
2011-08-01 09:45 51°17.511 2°51.901 7 278 18.3 101520 44
2011-08-01 09:46 51°17.34 2°52.098 8.6 280 18.3 101520 45
2011-08-01 09:47 51°17.171 2°52.298 6.3 285 18.3 101520 44
2011-08-01 09:48 51°16.983 2°52.457 6.6 281 18.3 101530 45
2011-08-01 09:49 51°16.792 2°52.61 7.3 285 18.2 101530 45
2011-08-01 09:50 51°16.604 2°52.769 8.1 279 18.3 101520 44
2011-08-01 09:51 51°16.414 2°52.919 6.9 279 18.2 101530 43
2011-08-01 09:52 51°16.224 2°53.069 7 279 18.4 101520 41
2011-08-01 09:53 51°16.039 2°53.227 7.6 280 18.5 101520 39
2011-08-01 09:54 51°15.855 2°53.384 8.2 277 18.7 101520 38
2011-08-01 09:55 51°15.678 2°53.558 8.9 281 19 101520 38
2011-08-01 09:56 51°15.516 2°53.757 7.9 278 19.1 101520 35
2011-08-01 09:57 51°15.358 2°53.955 6.7 277 19.4 101510 32
2011-08-01 09:58 51°15.233 2°54.104 5.6 278 19.6 101520 34
2011-08-01 09:59 51°15.118 2°54.241 7.4 281 19.8 101520 34
2011-08-01 10:00 51°14.97 2°54.426 7.2 279 19.9 101510 34
2011-08-01 10:01 51°14.809 2°54.629 6.4 281 20 101520 35
2011-08-01 10:02 51°14.65 2°54.832 9.6 286 19.9 101520 33
2011-08-01 10:03 51°14.491 2°55.034 10.3 278 20 101510 33
2011-08-01 10:04 51°14.34 2°55.223 8.6 282 20.1 101510 32
2011-08-01 10:05 51°14.192 2°55.369 9.2 284 20.2 101510 32
2011-08-01 10:06 51°14.064 2°55.466 6.2 284 20.3 101510 31
2011-08-01 10:07 51°13.948 2°55.547 5.2 284 20.3 101510 30
2011-08-01 10:08 51°13.857 2°55.61 5.4 285 20.4 101510 31
2011-08-01 10:09 51°13.773 2°55.689 7.4 277 20.5 101510 32
2011-08-01 10:10 51°13.715 2°55.785 4.5 278 20.5 101520 32
2011-08-01 10:11 51°13.673 2°55.871 2.8 347 20.4 101520 33
2011-08-01 10:12 51°13.642 2°55.95 2.5 347 20.5 101520 32
2011-08-01 10:13 51°13.634 2°56.013 2.4 279 20.6 101520 32
2011-08-01 10:14 51°13.634 2°56.016 0.2 281 20.6 101520 32
2011-08-01 10:15 51°13.636 2°56.019 1.7 276 20.7 101520 31